Millville, NJ

9:04 AM EST on December 08, 2019 (GMT -0500)
Millville Municipal

Weather History for KMIV - October, 2019

Change the Weather History Date:

Monday, October 21, 2019

  Actual Average Record
Temperature  
Mean Temperature 60 °F -  
Max Temperature 69 °F 65 °F 83 °F (1984)
Min Temperature 52 °F 42 °F 24 °F (1952)
Degree Days  
Heating Degree Days 4    
Growing Degree Days 10 (Base 50)    
Moisture  
Dew Point 51 °F    
Average Humidity 81    
Maximum Humidity 90    
Minimum Humidity 51    
Precipitation  
Precipitation 0.00 in - - ()
Sea Level Pressure  
Sea Level Pressure 30.02 in    
Wind  
Wind Speed 9 mph ()    
Max Wind Speed 15 mph    
Max Gust Speed 26 mph    
Visibility 10.0 miles    
Events      
Averages and records for this station are not official NWS values.
T = Trace of Precipitation, MM = Missing Value Source: Averaged Metar Reports

Daily Weather History Graph

Daily Weather History Graph

Search for Another Location

Airport or City:

Astronomy

Oct. 21, 2019 Rise Set
Actual Time 7:16 AM EDT 6:13 PM EDT
Civil Twilight 6:48 AM EDT 6:40 PM EDT
Nautical Twilight 6:17 AM EDT 7:11 PM EDT
Astronomical Twilight 5:46 AM EDT 7:42 PM EDT
Moon No Moon Rise 2:31 PM EDT (10/21)
Length of Visible Light 11h 51m
Length of Day
10h 57m
Waning Gibbous, 48% of the Moon is Illuminated
Oct 21
Waning Gibbous
Oct 27
New
Nov 4
First Quarter
Nov 12
Full
Nov 19
Last Quarter

Hourly Weather History & Observations

Time (EDT) Temp. Dew Point Humidity Pressure Visibility Wind Dir Wind Speed Gust Speed Precip Events Conditions
12:05 AM 55.9 °F 51.1 °F 84% 29.90 in 10.0 mi NNE 15.0 mph 26.5 mph N/A   Overcast
12:54 AM 55.0 °F 51.1 °F 86% 29.90 in 10.0 mi NNE 10.4 mph - N/A   Overcast
1:45 AM 54.0 °F 51.1 °F 90% 29.92 in 10.0 mi North 12.7 mph - N/A   Overcast
1:54 AM 54.0 °F 51.1 °F 90% 29.92 in 10.0 mi North 12.7 mph - N/A   Overcast
2:54 AM 54.0 °F 51.1 °F 90% 29.93 in 10.0 mi North 9.2 mph - N/A   Overcast
3:54 AM 54.0 °F 51.1 °F 90% 29.94 in 10.0 mi North 12.7 mph - N/A   Overcast
4:54 AM 54.0 °F 50.0 °F 86% 29.96 in 10.0 mi North 8.1 mph - N/A   Overcast
5:06 AM 54.0 °F 50.0 °F 86% 29.97 in 10.0 mi North 11.5 mph - N/A   Overcast
5:54 AM 54.0 °F 50.0 °F 86% 29.99 in 10.0 mi North 9.2 mph - N/A   Overcast
6:54 AM 53.1 °F 48.9 °F 86% 30.02 in 10.0 mi North 9.2 mph - N/A   Overcast
7:33 AM 52.0 °F 48.0 °F 86% 30.03 in 10.0 mi North 11.5 mph - N/A   Scattered Clouds
7:54 AM 52.0 °F 48.0 °F 86% 30.04 in 10.0 mi North 10.4 mph - N/A   Clear
8:54 AM 54.0 °F 46.9 °F 77% 30.04 in 10.0 mi North 6.9 mph - N/A   Clear
9:54 AM 57.0 °F 48.0 °F 72% 30.05 in 10.0 mi North 10.4 mph - N/A   Clear
10:54 AM 61.0 °F 48.9 °F 64% 30.06 in 10.0 mi North 10.4 mph - N/A   Clear
3:54 PM 69.1 °F 50.0 °F 51% 30.05 in 10.0 mi NNE 6.9 mph - N/A   Partly Cloudy
4:54 PM 66.9 °F 53.1 °F 61% 30.06 in 10.0 mi SE 11.5 mph - N/A   Partly Cloudy
5:54 PM 63.0 °F 53.1 °F 70% 30.07 in 10.0 mi ESE 6.9 mph - N/A   Mostly Cloudy
6:54 PM 60.1 °F 54.0 °F 80% 30.10 in 10.0 mi Calm Calm - N/A   Mostly Cloudy
7:54 PM 59.0 °F 53.1 °F 81% 30.11 in 10.0 mi East 3.5 mph - N/A   Overcast
8:54 PM 57.9 °F 53.1 °F 84% 30.11 in 10.0 mi Calm Calm - N/A   Overcast
9:54 PM 57.9 °F 53.1 °F 84% 30.11 in 10.0 mi East 5.8 mph - N/A   Overcast
10:54 PM 57.9 °F 54.0 °F 87% 30.12 in 10.0 mi East 3.5 mph - N/A   Overcast
11:54 PM 57.9 °F 54.0 °F 87% 30.10 in 10.0 mi East 4.6 mph - N/A   Overcast